Location: Sternwarte ZA, Rosenfeld-Brittheim
(48.2889°N, 8.6789°E)
Time: 06:11:21
(UTC+02:00)

ISS - Pass Details

Date: 24 September 2020
Orbit: 419 x 420 km, 51.6° (Epoch: 21 September)

Event Time Altitude Azimuth Distance (km) Brightness Sun altitude
Rises 21:43:17 0° 282° (WNW) 2,369 1.3 -24.1°
Reaches altitude 10° 21:45:26 10° 289° (WNW) 1,504 0.1 -24.4°
Enters shadow 21:47:44 34° 317° (NW) 711 -2.1 -24.7°
